Calumet, MI

3:52 AM EST on February 24, 2017 (GMT -0500)
Houghton County Memorial

Weather History for KCMX - June, 2013

Change the Weather History Date:

Wednesday, June 12, 2013

  Actual Average Record
Temperature  
Mean Temperature 63 °F -  
Max Temperature 77 °F 66 °F 90 °F (1956)
Min Temperature 51 °F 49 °F 37 °F (2000)
Degree Days  
Heating Degree Days 2    
Growing Degree Days 13 (Base 50)    
Moisture  
Dew Point 47 °F    
Average Humidity 54    
Maximum Humidity 86    
Minimum Humidity 34    
Precipitation  
Precipitation 0.00 in - - ()
Sea Level Pressure  
Sea Level Pressure 29.86 in    
Wind  
Wind Speed 8 mph (NW)    
Max Wind Speed 14 mph    
Max Gust Speed 20 mph    
Visibility 10 miles    
Events      
Averages and records for this station are not official NWS values.
T = Trace of Precipitation, MM = Missing Value Source: NWS Daily Summary

Daily Weather History Graph

Daily Weather History Graph

Search for Another Location

Airport or City:

Trip Planner

Search our weather history database for the weather conditions in past years. The results will help you decide how hot, cold, wet, or windy it might be!

Date:

Astronomy

Jun. 12, 2013 Rise Set
Actual Time 5:57 AM EDT 9:50 PM EDT
Civil Twilight 5:17 AM EDT 10:30 PM EDT
Nautical Twilight 4:23 AM EDT 11:24 PM EDT
Astronomical Twilight 3:02 AM EDT 12:46 AM EDT
Moon 9:48 AM EDT (6/12) No Moon Set
Length of Visible Light 17h 12m
Length of Day
15h 52m
Waxing Crescent, 14% of the Moon is Illuminated
Jun 12
Waxing Crescent
Jun 16
First Quarter
Jun 23
Full
Jun 30
Last Quarter
Jul 8
New

Hourly Weather History & Observations

Time (EDT) Temp. Dew Point Humidity Pressure Visibility Wind Dir Wind Speed Gust Speed Precip Events Conditions
12:53 AM 57.9 °F 50.0 °F 75% 29.88 in 10.0 mi NW 8.1 mph - N/A   Clear
1:53 AM 51.1 °F 46.9 °F 86% 29.88 in 10.0 mi NW 6.9 mph - N/A   Clear
2:53 AM 53.1 °F 46.9 °F 80% 29.88 in 10.0 mi NW 6.9 mph - N/A   Clear
3:53 AM 53.1 °F 46.0 °F 77% 29.86 in 10.0 mi NW 5.8 mph - N/A   Clear
4:53 AM 52.0 °F 46.0 °F 80% 29.86 in 10.0 mi WNW 5.8 mph - N/A   Clear
5:53 AM 53.1 °F 45.0 °F 74% 29.88 in 10.0 mi WNW 6.9 mph - N/A   Clear
6:53 AM 57.9 °F 48.0 °F 70% 29.88 in 10.0 mi NW 9.2 mph - N/A   Partly Cloudy
7:53 AM 63.0 °F 46.9 °F 56% 29.87 in 10.0 mi WNW 11.5 mph - N/A   Clear
8:53 AM 64.9 °F 48.9 °F 56% 29.88 in 10.0 mi WNW 10.4 mph - N/A   Clear
9:53 AM 68.0 °F 48.9 °F 50% 29.88 in 10.0 mi WNW 10.4 mph - N/A   Clear
10:53 AM 72.0 °F 48.9 °F 44% 29.86 in 10.0 mi WNW 10.4 mph - N/A   Clear
11:53 AM 73.9 °F 48.0 °F 40% 29.87 in 10.0 mi West 13.8 mph 19.6 mph N/A   Clear
12:53 PM 73.9 °F 46.9 °F 38% 29.86 in 10.0 mi WNW 12.7 mph - N/A   Clear
1:53 PM 75.0 °F 48.0 °F 38% 29.86 in 10.0 mi NNW 11.5 mph - N/A   Clear
2:53 PM 75.0 °F 46.9 °F 37% 29.85 in 10.0 mi NNW 11.5 mph - N/A   Clear
3:53 PM 75.0 °F 45.0 °F 34% 29.84 in 10.0 mi WNW 9.2 mph - N/A   Clear
4:53 PM 75.0 °F 45.0 °F 34% 29.84 in 10.0 mi NW 8.1 mph 17.3 mph N/A   Clear
5:53 PM 75.0 °F 45.0 °F 34% 29.83 in 10.0 mi NW 11.5 mph - N/A   Clear
6:53 PM 73.9 °F 45.0 °F 35% 29.82 in 10.0 mi NW 6.9 mph - N/A   Clear
7:53 PM 73.9 °F 46.9 °F 38% 29.80 in 10.0 mi NW 5.8 mph - N/A   Clear
8:53 PM 69.1 °F 48.9 °F 49% 29.82 in 10.0 mi North 4.6 mph - N/A   Clear
9:53 PM 63.0 °F 48.0 °F 58% 29.83 in 10.0 mi North 6.9 mph - N/A   Clear
10:53 PM 63.0 °F 46.0 °F 54% 29.86 in 10.0 mi NNW 8.1 mph - N/A   Partly Cloudy
11:53 PM 64.0 °F 46.0 °F 52% 29.86 in 10.0 mi North 8.1 mph - N/A   Overcast